LOT1AL EPWA-LHBP

Flight info

Callsign LOT1AL
Flight time N/A
Altitude 38000
Route EVINA DCT KUKAM DCT BABKO/N0440F370 DCT ULPUK DCT EDEMU
Aircraft B738/M-SDE2E3FGHIRWXY/LB1

Departure

Time 2026-04-30 14:51
Airport Warsaw Chopin Airport (EPWA)

Arrival

Time N/A
Airport Budapest Liszt Ferenc International Airport (LHBP)
Time Latitude Longitude Altitude Speed Heading
2026-04-30 14:37 52.15328 20.98376 334 ft 0 kts 62°
2026-04-30 14:45 52.15319 20.98348 334 ft 3 kts 62°
2026-04-30 14:45 52.15308 20.98314 335 ft 3 kts 62°
2026-04-30 14:45 52.15299 20.98286 333 ft 3 kts 58°
2026-04-30 14:46 52.15284 20.98260 333 ft 3 kts 22°
2026-04-30 14:46 52.15263 20.98257 332 ft 3 kts 339°
2026-04-30 14:46 52.15257 20.98261 332 ft 0 kts 332°
2026-04-30 14:48 52.15266 20.98253 334 ft 5 kts 332°
2026-04-30 14:48 52.15323 20.98203 334 ft 14 kts 332°
2026-04-30 14:48 52.15428 20.98111 337 ft 19 kts 332°
2026-04-30 14:48 52.15544 20.98009 336 ft 19 kts 332°
2026-04-30 14:49 52.15664 20.98051 338 ft 18 kts 24°
2026-04-30 14:49 52.15776 20.98134 338 ft 18 kts 24°
2026-04-30 14:49 52.15886 20.98214 334 ft 17 kts 24°
2026-04-30 14:49 52.15991 20.98293 335 ft 16 kts 24°
2026-04-30 14:50 52.16165 20.98172 336 ft 37 kts 294°
2026-04-30 14:50 52.16381 20.97402 336 ft 110 kts 294°
2026-04-30 14:51 52.17229 20.94373 1474 ft 150 kts 297°
2026-04-30 14:51 52.17667 20.92784 2253 ft 160 kts 298°
2026-04-30 14:51 52.18391 20.89706 3080 ft 199 kts 274°
2026-04-30 14:52 52.18031 20.87380 3391 ft 224 kts 254°
2026-04-30 14:52 52.17172 20.82203 4254 ft 255 kts 260°
2026-04-30 14:52 52.16404 20.78474 5187 ft 273 kts 235°
2026-04-30 14:53 52.13658 20.75797 6594 ft 284 kts 200°
2026-04-30 14:53 52.11769 20.74761 7322 ft 290 kts 198°
2026-04-30 14:54 52.07868 20.72732 8805 ft 300 kts 198°
2026-04-30 14:54 52.03857 20.70626 10311 ft 309 kts 198°
2026-04-30 14:55 51.99568 20.68341 11032 ft 345 kts 198°
2026-04-30 14:55 51.97254 20.67101 11559 ft 355 kts 198°
2026-04-30 14:55 51.92505 20.64549 12984 ft 364 kts 198°
2026-04-30 14:56 51.87617 20.61924 14408 ft 375 kts 197°
2026-04-30 14:56 51.82623 20.59246 15781 ft 384 kts 197°
2026-04-30 14:57 51.80072 20.57880 16499 ft 388 kts 197°
2026-04-30 14:57 51.74889 20.55110 17905 ft 397 kts 197°
2026-04-30 14:58 51.69588 20.52284 19192 ft 406 kts 197°
2026-04-30 14:58 51.66877 20.50842 19769 ft 411 kts 197°
2026-04-30 14:58 51.61381 20.47923 20932 ft 420 kts 197°
2026-04-30 14:59 51.55811 20.44971 22056 ft 429 kts 196°
2026-04-30 15:00 51.47179 20.40412 23716 ft 441 kts 196°
2026-04-30 15:00 51.41288 20.37309 24640 ft 449 kts 195°
2026-04-30 15:01 51.35294 20.34174 25498 ft 457 kts 195°
2026-04-30 15:01 51.32255 20.32598 25912 ft 461 kts 195°
2026-04-30 15:01 51.26123 20.29427 26756 ft 468 kts 195°
2026-04-30 15:02 51.23009 20.27819 27169 ft 472 kts 195°
2026-04-30 15:02 51.19871 20.26199 27583 ft 475 kts 194°
2026-04-30 15:03 51.10334 20.21287 28737 ft 485 kts 194°
2026-04-30 15:03 51.03911 20.17990 29495 ft 491 kts 194°
2026-04-30 15:04 50.97356 20.14635 30206 ft 497 kts 194°
2026-04-30 15:04 50.87415 20.09564 31206 ft 502 kts 194°
2026-04-30 15:05 50.77456 20.04507 32183 ft 504 kts 194°
2026-04-30 15:06 50.70767 20.01115 32889 ft 503 kts 195°
2026-04-30 15:06 50.64126 19.97750 33801 ft 498 kts 195°
2026-04-30 15:07 50.57538 19.94425 34496 ft 496 kts 195°
2026-04-30 15:07 50.50978 19.91124 35112 ft 493 kts 195°
2026-04-30 15:08 50.44485 19.87868 35721 ft 491 kts 196°
2026-04-30 15:08 50.34731 19.82993 36564 ft 488 kts 196°
2026-04-30 15:09 50.28311 19.79796 37123 ft 486 kts 197°
2026-04-30 15:09 50.21869 19.76596 37604 ft 485 kts 197°
2026-04-30 15:10 50.15440 19.73413 38116 ft 483 kts 197°
2026-04-30 15:11 50.02596 19.67079 38378 ft 483 kts 197°
2026-04-30 15:11 49.96233 19.63954 38367 ft 481 kts 197°
2026-04-30 15:13 49.80333 19.56183 38366 ft 477 kts 197°
2026-04-30 15:14 49.60177 19.47440 37632 ft 481 kts 181°
2026-04-30 15:16 49.44117 19.50072 35720 ft 455 kts 169°
2026-04-30 15:17 49.31711 19.52437 34087 ft 446 kts 169°
2026-04-30 15:18 49.16608 19.55238 32086 ft 427 kts 169°
2026-04-30 15:19 49.07883 19.56853 30985 ft 418 kts 169°